Location: Monfort
(47.1967°N, 0.2115°W)
Time: 11:56:50
(UTC+00:00)

Cosmos 1709 Rocket - Pass Details

Date: 24 October 2020
Orbit: 949 x 1001 km, 82.9° (Epoch: 27 November)

Event Time Altitude Azimuth Distance (km) Brightness Sun altitude
Rises 20:00:49 0° 348° (NNW) 3,722 7.4 -31.7°
Reaches altitude 10° 20:03:23 10° 345° (NNW) 2,774 6.7 -32.1°
Maximum altitude 20:09:37 59° 268° (W) 1,148 4.5 -33.1°
Enters shadow 20:10:34 53° 233° (SW) 1,211 4.5 -33.3°
